| time (UTC) | temp C | wind direction | speed KPH | gust KPH | rain 1hr cm | rain 24hr cm | rain mn cm | humidity % | barometer mb |
| 20260510191509 | 22 | 17 | 48.3 | 69.2 | 0.00 | 0.00 | 0.00 | 53 | 991.8 |
| 20260510190024 | 25 | 27 | 49.9 | 61.2 | 0.00 | 0.00 | 0.00 | 47 | 991.8 |
| 20260510184620 | 25 | 27 | 40.2 | 57.9 | 0.00 | 0.00 | 0.00 | 44 | 991.5 |
| 20260510183018 | 25 | 28 | 41.8 | 61.2 | 0.00 | 0.00 | 0.00 | 44 | 991.3 |
| 20260510181515 | 25 | 33 | 48.3 | 61.2 | 0.00 | 0.00 | 0.00 | 43 | 991.0 |
| 20260510180018 | 25 | 42 | 49.9 | 62.8 | 0.00 | 0.00 | 0.00 | 43 | 990.5 |
| 20260510174609 | 25 | 34 | 46.7 | 64.4 | 0.00 | 0.00 | 0.00 | 42 | 990.2 |
| 20260510173039 | 24 | 346 | 51.5 | 67.6 | 0.00 | 0.00 | 0.00 | 44 | 990.0 |
| 20260510171554 | 24 | 15 | 49.9 | 64.4 | 0.00 | 0.00 | 0.00 | 44 | 990.3 |
| 20260510170033 | 24 | 13 | 48.3 | 61.2 | 0.00 | 0.00 | 0.00 | 44 | 990.2 |
| 20260510164632 | 23 | 329 | 43.5 | 59.5 | 0.00 | 0.00 | 0.00 | 46 | 990.1 |
| 20260510163053 | 24 | 336 | 43.5 | 59.5 | 0.00 | 0.00 | 0.00 | 46 | 989.9 |
| 20260510161553 | 24 | 319 | 37.0 | 56.3 | 0.00 | 0.00 | 0.00 | 45 | 990.0 |
| 20260510154611 | 23 | 342 | 40.2 | 51.5 | 0.00 | 0.00 | 0.00 | 42 | 989.0 |
| 20260510153102 | 24 | 342 | 40.2 | 49.9 | 0.00 | 0.00 | 0.00 | 35 | 989.1 |
| 20260510151553 | 25 | 336 | 32.2 | 41.8 | 0.00 | 0.00 | 0.00 | 24 | 988.5 |
| 20260510150109 | 25 | 317 | 29.0 | 35.4 | 0.00 | 0.00 | 0.00 | 23 | 988.5 |
| 20260510144607 | 23 | 293 | 14.5 | 19.3 | 0.00 | 0.00 | 0.00 | 31 | 988.4 |
| 20260510143031 | 22 | 270 | 14.5 | 20.9 | 0.00 | 0.00 | 0.00 | 35 | 988.1 |
| 20260510141527 | 22 | 277 | 9.7 | 14.5 | 0.00 | 0.00 | 0.00 | 40 | 988.0 |
| 20260510140022 | 21 | 265 | 3.2 | 12.9 | 0.00 | 0.00 | 0.00 | 46 | 987.5 |
| 20260510134519 | 19 | 265 | 4.8 | 9.7 | 0.00 | 0.00 | 0.00 | 54 | 987.5 |
| 20260510133030 | 18 | 210 | 3.2 | 9.7 | 0.00 | 0.00 | 0.00 | 56 | 987.1 |
| 20260510131528 | 17 | 132 | 3.2 | 9.7 | 0.00 | 0.00 | 0.00 | 58 | 986.7 |
| 20260510130021 | 17 | 164 | 9.7 | 14.5 | 0.00 | 0.00 | 0.00 | 59 | 986.5 |
| 20260510124520 | 16 | 169 | 11.3 | 16.1 | 0.00 | 0.00 | 0.00 | 60 | 986.1 |
| 20260510123022 | 16 | 156 | 12.9 | 22.5 | 0.00 | 0.00 | 0.00 | 60 | 986.0 |
| 20260510121518 | 16 | 154 | 14.5 | 20.9 | 0.00 | 0.00 | 0.00 | 58 | 985.8 |
| 20260510120017 | 16 | 157 | 12.9 | 19.3 | 0.00 | 0.00 | 0.00 | 57 | 985.8 |
| 20260510114514 | 15 | 144 | 14.5 | 19.3 | 0.00 | 0.00 | 0.00 | 55 | 985.6 |
| 20260510113004 | 16 | 138 | 12.9 | 14.5 | 0.00 | 0.00 | 0.00 | 51 | 985.6 |
| 20260510111504 | 16 | 98 | 4.8 | 9.7 | 0.00 | 0.00 | 0.00 | 48 | 985.8 |
| 20260510110007 | 16 | 144 | 11.3 | 16.1 | 0.00 | 0.00 | 0.00 | 47 | 985.5 |
| 20260510104613 | 16 | 144 | 11.3 | 14.5 | 0.00 | 0.00 | 0.00 | 46 | 985.5 |
| 20260510104500 | 16 | 139 | 12.9 | 14.5 | 0.00 | 0.00 | 0.00 | 46 | 985.5 |
| 20260510103055 | 16 | 147 | 14.5 | 16.1 | 0.00 | 0.00 | 0.00 | 45 | 985.4 |
| 20260510101601 | 17 | 153 | 14.5 | 16.1 | 0.00 | 0.00 | 0.00 | 43 | 985.2 |
| 20260510100056 | 17 | 156 | 4.8 | 16.1 | 0.00 | 0.00 | 0.00 | 42 | 985.3 |
| 20260510094605 | 18 | 173 | 8.0 | 14.5 | 0.00 | 0.00 | 0.00 | 40 | 985.1 |
| 20260510093004 | 17 | 153 | 8.0 | 11.3 | 0.00 | 0.00 | 0.00 | 40 | 985.1 |
| 20260510091501 | 17 | 151 | 12.9 | 17.7 | 0.00 | 0.00 | 0.00 | 40 | 985.2 |
| 20260510090002 | 17 | 149 | 16.1 | 19.3 | 0.00 | 0.00 | 0.00 | 40 | 985.2 |
| 20260510084614 | 17 | 151 | 14.5 | 17.7 | 0.00 | 0.00 | 0.00 | 39 | 985.3 |
| 20260510083111 | 18 | 136 | 16.1 | 19.3 | 0.00 | 0.00 | 0.00 | 37 | 985.1 |
| 20260510081608 | 19 | 147 | 14.5 | 19.3 | 0.00 | 0.00 | 0.00 | 34 | 985.2 |
| 20260510080148 | 20 | 144 | 19.3 | 24.1 | 0.00 | 0.00 | 0.00 | 34 | 985.2 |
| 20260510074546 | 20 | 134 | 19.3 | 22.5 | 0.00 | 0.00 | 0.00 | 34 | 985.5 |
| 20260510073059 | 20 | 137 | 17.7 | 20.9 | 0.00 | 0.00 | 0.00 | 32 | 985.6 |
| 20260510071601 | 21 | 144 | 16.1 | 24.1 | 0.00 | 0.00 | 0.00 | 31 | 985.7 |
| 20260510070058 | 21 | 165 | 12.9 | 25.7 | 0.00 | 0.00 | 0.00 | 30 | 985.8 |
| 20260510064603 | 21 | 159 | 19.3 | 27.4 | 0.00 | 0.00 | 0.00 | 30 | 985.9 |
| 20260510063002 | 22 | 153 | 14.5 | 19.3 | 0.00 | 0.00 | 0.00 | 28 | 986.1 |
| 20260510061505 | 22 | 164 | 12.9 | 19.3 | 0.00 | 0.00 | 0.00 | 28 | 986.2 |
| 20260510060100 | 22 | 189 | 11.3 | 17.7 | 0.00 | 0.00 | 0.00 | 26 | 986.2 |
| 20260510054602 | 23 | 194 | 14.5 | 20.9 | 0.00 | 0.00 | 0.00 | 26 | 986.2 |
| 20260510053001 | 23 | 156 | 16.1 | 22.5 | 0.00 | 0.00 | 0.00 | 25 | 986.3 |
| 20260510051600 | 24 | 162 | 20.9 | 30.6 | 0.00 | 0.00 | 0.00 | 23 | 986.2 |
| 20260510050058 | 22 | 169 | 12.9 | 20.9 | 0.00 | 0.00 | 0.00 | 25 | 986.4 |
| 20260510044558 | 22 | 161 | 9.7 | 22.5 | 0.00 | 0.00 | 0.00 | 24 | 986.3 |
| 20260510043110 | 23 | 150 | 16.1 | 27.4 | 0.00 | 0.00 | 0.00 | 22 | 986.1 |
| 20260510041555 | 24 | 157 | 22.5 | 32.2 | 0.00 | 0.00 | 0.00 | 20 | 986.0 |
| 20260510040105 | 25 | 157 | 22.5 | 29.0 | 0.00 | 0.00 | 0.00 | 19 | 985.8 |
| 20260510034600 | 25 | 161 | 20.9 | 29.0 | 0.00 | 0.00 | 0.00 | 19 | 985.6 |
| 20260510033051 | 25 | 151 | 24.1 | 29.0 | 0.00 | 0.00 | 0.00 | 19 | 985.5 |
| 20260510031600 | 25 | 159 | 19.3 | 25.7 | 0.00 | 0.00 | 0.00 | 19 | 985.5 |
| 20260510030049 | 25 | 159 | 17.7 | 22.5 | 0.00 | 0.00 | 0.00 | 18 | 985.4 |
| 20260510024549 | 26 | 162 | 14.5 | 20.9 | 0.00 | 0.00 | 0.00 | 18 | 985.2 |
| 20260510023100 | 26 | 171 | 12.9 | 19.3 | 0.00 | 0.00 | 0.00 | 16 | 985.0 |
| 20260510021558 | 27 | 177 | 12.9 | 17.7 | 0.00 | 0.00 | 0.00 | 16 | 984.8 |
| 20260510020057 | 27 | 167 | 11.3 | 17.7 | 0.00 | 0.00 | 0.00 | 16 | 984.6 |
| 20260510014657 | 28 | 200 | 12.9 | 20.9 | 0.00 | 0.00 | 0.00 | 15 | 984.5 |
| 20260510013056 | 29 | 178 | 9.7 | 14.5 | 0.00 | 0.00 | 0.00 | 14 | 984.3 |
| 20260510011548 | 30 | 196 | 11.3 | 16.1 | 0.00 | 0.00 | 0.00 | 13 | 984.2 |
| 20260510010045 | 31 | 190 | 11.3 | 17.7 | 0.00 | 0.00 | 0.00 | 12 | 984.2 |
| 20260510004544 | 31 | 196 | 14.5 | 20.9 | 0.00 | 0.00 | 0.00 | 12 | 984.2 |
| 20260510003032 | 32 | 205 | 14.5 | 24.1 | 0.00 | 0.00 | 0.00 | 11 | 984.2 |
| 20260510001531 | 32 | 169 | 9.7 | 20.9 | 0.00 | 0.00 | 0.00 | 11 | 984.2 |
| 20260510000029 | 32 | 188 | 12.9 | 20.9 | 0.00 | 0.00 | 0.00 | 11 | 984.4 |
| 20260509234536 | 32 | 227 | 19.3 | 38.6 | 0.00 | 0.00 | 0.00 | 11 | 984.5 |
| 20260509233026 | 32 | 225 | 19.3 | 27.4 | 0.00 | 0.00 | 0.00 | 11 | 984.6 |
| 20260509231528 | 32 | 275 | 12.9 | 29.0 | 0.00 | 0.00 | 0.00 | 11 | 984.6 |
| 20260509230024 | 32 | 228 | 25.7 | 38.6 | 0.00 | 0.00 | 0.00 | 11 | 984.7 |
| 20260509224522 | 32 | 221 | 12.9 | 29.0 | 0.00 | 0.00 | 0.00 | 11 | 984.9 |
| 20260509223036 | 32 | 246 | 11.3 | 27.4 | 0.00 | 0.00 | 0.00 | 11 | 985.1 |
| 20260509221535 | 32 | 223 | 14.5 | 29.0 | 0.00 | 0.00 | 0.00 | 12 | 985.2 |
| 20260509220037 | 32 | 225 | 14.5 | 24.1 | 0.00 | 0.00 | 0.00 | 12 | 985.4 |
| 20260509214534 | 32 | 198 | 11.3 | 22.5 | 0.00 | 0.00 | 0.00 | 12 | 985.5 |
| 20260509213029 | 32 | 221 | 19.3 | 29.0 | 0.00 | 0.00 | 0.00 | 12 | 985.9 |
| 20260509211526 | 32 | 252 | 29.0 | 37.0 | 0.00 | 0.00 | 0.00 | 12 | 986.1 |
| 20260509210124 | 32 | 244 | 22.5 | 35.4 | 0.00 | 0.00 | 0.00 | 13 | 986.5 |
| 20260509204520 | 31 | 229 | 14.5 | 24.1 | 0.00 | 0.00 | 0.00 | 13 | 986.9 |
| 20260509203011 | 31 | 221 | 27.4 | 38.6 | 0.00 | 0.00 | 0.00 | 13 | 987.1 |
| 20260509201508 | 31 | 228 | 17.7 | 41.8 | 0.00 | 0.00 | 0.00 | 13 | 987.4 |
| 20260509200005 | 31 | 221 | 22.5 | 35.4 | 0.00 | 0.00 | 0.00 | 14 | 987.5 |
| 20260509194504 | 31 | 200 | 17.7 | 32.2 | 0.00 | 0.00 | 0.00 | 14 | 987.8 |
| 20260509193007 | 30 | 209 | 17.7 | 35.4 | 0.00 | 0.00 | 0.00 | 14 | 988.1 |